Weather reports worldwide

Advertisment
Boulogne, France (7002): temperature & dewpoint: 10.08.2018 18:00:00 - 16.08.2018 18:00:00 (CEST)Boulogne, France (7002): wind speed & gusts: 10.08.2018 18:00:00 - 16.08.2018 18:00:00 (CEST)Boulogne, France (7002): wind direction: 10.08.2018 18:00:00 - 16.08.2018 18:00:00 (CEST)Boulogne, France (7002): reduced air pressure: 10.08.2018 18:00:00 - 16.08.2018 18:00:00 (CEST)Boulogne, France (7002): visibility: 10.08.2018 18:00:00 - 16.08.2018 18:00:00 (CEST)Boulogne, France (7002): precipitation: 10.08.2018 18:00:00 - 16.08.2018 18:00:00 (CEST)
Date & Time tt [°C] td [°C] ff [km/h] ff [kn] fx [km/h] fx [kn] dd ppp [hPa] vv [km] rr [mm]
16.08.2018 18:00:00 18,0 15,8 15 8 31 17 SW 1015,1 - 0,0
16.08.2018 17:00:00 18,4 15,8 21 12 39 21 SW 1015,3 12 0,0
16.08.2018 16:00:00 19,0 15,9 25 14 45 24 W 1015,6 - 0,0
16.08.2018 15:00:00 19,4 15,9 26 14 44 24 WSW 1015,4 - 0,0
16.08.2018 14:00:00 19,8 15,6 29 16 43 23 SW 1015,2 12 0,0
16.08.2018 13:00:00 20,6 15,6 22 12 40 22 SSW 1014,8 - 0,0
16.08.2018 12:00:00 19,6 16,2 21 11 42 23 SW 1014,9 - 0,0
16.08.2018 11:00:00 19,1 15,8 29 15 43 23 SW 1015,2 12 0,0
16.08.2018 10:00:00 18,4 15,6 26 14 36 20 SW 1015,5 - 0,0
16.08.2018 09:00:00 18,1 15,7 21 11 36 19 SW 1015,6 - 0,0
16.08.2018 08:00:00 17,8 15,6 18 10 37 20 SW 1015,6 12 0,0
16.08.2018 07:00:00 17,7 15,3 29 16 45 24 WSW 1015,9 - 0,0
16.08.2018 06:00:00 17,4 15,7 28 15 48 26 WSW 1016,1 - 0,0
16.08.2018 05:00:00 17,4 15,4 28 15 44 24 SW 1016,3 12 0,0
16.08.2018 04:00:00 17,3 15,5 23 12 44 24 SW 1016,6 - 0,0
16.08.2018 03:00:00 17,5 15,5 28 15 46 25 WSW 1017,0 - 0,0
16.08.2018 02:00:00 17,6 14,7 28 15 48 26 SW 1017,4 12 0,0
16.08.2018 01:00:00 17,7 14,8 27 15 40 22 SW 1017,8 - 0,0
16.08.2018 00:00:00 17,6 15,0 32 18 46 25 WSW 1018,1 - 0,0
15.08.2018 23:00:00 17,8 14,5 25 13 40 22 SW 1018,3 12 0,0
15.08.2018 22:00:00 17,9 14,2 26 14 39 21 SW 1018,4 - 0,0
15.08.2018 21:00:00 18,0 14,3 26 14 44 24 SW 1018,3 - 0,0
15.08.2018 20:00:00 18,5 14,6 29 15 40 22 SW 1018,4 14 0,0
15.08.2018 19:00:00 18,8 15,1 29 16 42 23 SW 1018,8 - 0,0
15.08.2018 18:00:00 18,9 15,2 32 17 43 23 SW 1019,2 - 0,0
15.08.2018 17:00:00 19,2 15,1 29 16 44 24 SW 1019,4 14 0,0
15.08.2018 16:00:00 19,2 14,7 30 16 42 23 WSW 1019,6 - 0,0
15.08.2018 15:00:00 19,5 15,8 30 16 44 24 SW 1019,9 - 0,0
15.08.2018 14:00:00 19,1 15,0 29 16 39 21 SW 1019,9 12 0,0
15.08.2018 13:00:00 18,3 15,7 28 15 39 21 WSW 1019,8 - 0,0
15.08.2018 12:00:00 17,7 15,3 27 15 42 23 WSW 1020,0 - 0,0
15.08.2018 11:00:00 16,9 15,8 31 17 44 24 SW 1020,1 8 0,0
15.08.2018 10:00:00 17,5 15,3 26 14 42 23 WSW 1019,8 - 0,0
15.08.2018 09:00:00 17,3 15,5 27 14 40 22 WSW 1019,5 - 0,0
15.08.2018 08:00:00 17,6 14,5 17 9 29 16 WSW 1019,3 15 0,0
15.08.2018 07:00:00 17,4 14,3 16 9 36 19 W 1019,0 - 0,0
15.08.2018 06:00:00 17,5 14,4 25 13 38 21 W 1018,9 - 0,0
15.08.2018 05:00:00 17,9 15,2 20 11 30 16 W 1018,7 - 0,0
15.08.2018 04:00:00 17,7 17,1 18 10 34 18 WSW 1018,5 - 0,0
15.08.2018 03:00:00 17,6 16,8 19 11 39 21 WSW 1018,7 - 0,0
15.08.2018 02:00:00 17,8 16,8 23 12 37 20 WSW 1018,9 20 0,0
15.08.2018 01:00:00 17,7 16,7 22 12 34 19 WSW 1018,9 - 0,0
15.08.2018 00:00:00 17,8 16,7 22 12 36 19 WSW 1018,9 - 0,0
14.08.2018 23:00:00 17,6 16,3 24 13 42 23 WSW 1018,8 20 0,0
14.08.2018 22:00:00 17,8 16,1 25 13 46 25 WSW 1018,7 - 0,0
14.08.2018 21:00:00 18,1 15,5 26 14 52 28 WSW 1018,2 - 0,0
14.08.2018 20:00:00 18,5 15,2 29 16 48 26 WSW 1018,1 20 0,0
14.08.2018 19:00:00 19,0 15,3 30 16 53 29 WSW 1018,3 - 0,0
14.08.2018 18:00:00 18,6 15,5 28 15 43 23 WSW 1018,4 - 0,0
14.08.2018 17:00:00 18,8 16,0 27 15 44 24 WSW 1018,4 20 0,0
14.08.2018 16:00:00 18,7 15,4 27 14 43 23 WSW 1018,5 - 0,0
14.08.2018 15:00:00 18,9 14,2 29 16 44 24 WSW 1018,4 - 0,0
14.08.2018 14:00:00 18,9 14,6 27 14 41 22 WSW 1018,1 20 0,0
14.08.2018 13:00:00 19,2 13,8 15 8 26 14 WSW 1017,6 - 0,0
14.08.2018 12:00:00 18,4 13,5 14 8 24 13 W 1017,3 - 0,0
14.08.2018 11:00:00 17,9 12,8 15 8 26 14 WNW 1016,9 30 0,0
14.08.2018 10:00:00 17,6 12,9 14 7 28 15 WNW 1016,3 - 0,0
14.08.2018 09:00:00 17,0 12,9 16 8 28 15 NW 1015,9 - 0,0
14.08.2018 08:00:00 16,9 13,0 14 8 29 15 NW 1015,1 17 0,0
14.08.2018 07:00:00 16,6 13,3 13 7 23 13 NW 1014,4 - 0,0
14.08.2018 06:00:00 17,0 13,7 14 7 27 14 NW 1013,6 - 0,0
14.08.2018 05:00:00 17,5 14,2 16 9 29 15 NW 1013,2 - 0,0
14.08.2018 04:00:00 17,8 14,9 19 10 28 15 NNW 1012,8 - 0,0
14.08.2018 03:00:00 18,2 15,6 16 9 30 16 NNW 1012,3 - 0,0
14.08.2018 02:00:00 18,4 17,2 16 9 37 20 WNW 1011,9 - 0,0
14.08.2018 01:00:00 18,1 17,1 22 12 41 22 W 1011,4 - 0,0
14.08.2018 00:00:00 17,7 16,6 21 11 41 22 WSW 1011,0 - 0,0
13.08.2018 23:00:00 17,7 16,2 25 14 44 24 WSW 1010,6 12 0,0
13.08.2018 22:00:00 17,8 16,0 22 12 41 22 WSW 1010,3 - 0,0
13.08.2018 21:00:00 17,7 15,7 23 12 46 25 WSW 1010,0 - 0,0
13.08.2018 20:00:00 17,9 15,7 27 14 50 27 WSW 1009,4 - 0,0
13.08.2018 19:00:00 18,3 15,7 29 16 53 28 WSW 1008,9 - 0,0
13.08.2018 18:00:00 19,2 16,1 25 14 45 24 WSW 1008,6 - 0,0
13.08.2018 17:00:00 19,2 16,1 27 14 54 29 WSW 1008,3 12 0,0
13.08.2018 16:00:00 19,0 15,9 29 16 41 22 WSW 1008,2 - 0,0
13.08.2018 15:00:00 18,7 15,4 29 16 44 24 WSW 1008,1 - 0,0
13.08.2018 14:00:00 19,0 15,5 28 15 42 23 WSW 1007,7 - 0,0
13.08.2018 13:00:00 18,2 15,6 25 13 39 21 WSW 1007,6 - 0,0
13.08.2018 12:00:00 17,8 15,4 21 12 35 19 WSW 1007,2 - 0,0
13.08.2018 11:00:00 17,5 15,5 22 12 37 20 WSW 1006,9 8 0,0
13.08.2018 10:00:00 16,9 15,1 21 12 36 19 WSW 1006,7 - 0,0
13.08.2018 09:00:00 16,9 15,2 21 12 38 20 WSW 1006,5 - 0,2
13.08.2018 08:00:00 17,2 15,4 20 11 34 19 WSW 1006,2 8 0,0
13.08.2018 07:00:00 17,3 16,0 18 10 29 15 WSW 1006,0 - 0,0
13.08.2018 06:00:00 17,3 16,2 21 11 31 17 WSW 1005,7 - 0,2
13.08.2018 05:00:00 17,8 16,5 16 9 25 14 WSW 1005,6 10 0,0
13.08.2018 04:00:00 17,9 16,1 11 6 26 14 WSW 1006,0 - 0,0
13.08.2018 03:00:00 18,8 15,5 19 10 34 18 WSW 1006,5 - 0,0
13.08.2018 02:00:00 19,3 15,2 15 8 24 13 SW 1007,1 - 0,0
13.08.2018 01:00:00 18,7 14,8 13 7 23 12 SSE 1007,8 - 0,0
13.08.2018 00:00:00 19,0 14,7 5 3 11 6 S 1008,3 - 0,0
12.08.2018 23:00:00 19,1 14,1 6 4 11 6 SSE 1008,2 12 0,0
12.08.2018 22:00:00 19,6 13,8 7 4 14 7 ESE 1008,1 - 0,0
12.08.2018 21:00:00 19,8 13,5 8 4 23 13 SSW 1008,8 - 0,0
12.08.2018 20:00:00 20,8 13,0 10 6 18 10 SW 1009,1 12 0,0
12.08.2018 19:00:00 20,6 13,5 6 3 11 6 S 1009,7 - 0,0
12.08.2018 18:00:00 19,6 14,2 8 4 36 19 NNW 1010,1 - 0,0
12.08.2018 17:00:00 23,3 12,9 18 10 33 18 SW 1010,2 14 0,0
12.08.2018 16:00:00 24,5 12,8 16 9 29 16 SSW 1010,8 - 0,0
12.08.2018 15:00:00 23,1 12,1 15 8 31 17 SSW 1011,5 - 0,0
12.08.2018 14:00:00 23,6 12,3 17 9 47 25 SSW 1012,1 19 0,0
12.08.2018 13:00:00 24,1 11,1 22 12 49 27 S 1012,5 - 0,0
12.08.2018 12:00:00 23,3 11,7 23 12 53 29 S 1013,2 - 0,0
12.08.2018 11:00:00 22,1 10,9 26 14 48 26 S 1013,4 - 0,0
12.08.2018 10:00:00 21,6 11,0 23 12 42 23 S 1013,7 - 0,0
12.08.2018 09:00:00 20,5 10,6 19 11 36 20 SSE 1014,2 - 0,0
12.08.2018 08:00:00 18,4 10,5 19 11 34 18 SSE 1014,8 12 0,0
12.08.2018 07:00:00 18,0 11,1 21 11 40 22 SSE 1015,0 - 0,0
12.08.2018 06:00:00 18,2 11,3 19 11 31 17 SSE 1015,3 - 0,0
12.08.2018 05:00:00 18,0 12,0 19 10 31 17 SE 1015,9 18 0,0
12.08.2018 04:00:00 18,1 12,1 20 11 30 16 SE 1016,7 - 0,0
12.08.2018 03:00:00 18,2 12,4 20 11 32 17 SE 1017,3 - 0,0
12.08.2018 02:00:00 17,8 12,9 14 8 26 14 SE 1018,3 18 0,0
12.08.2018 01:00:00 18,0 12,7 13 7 23 12 SE 1019,2 - 0,0
12.08.2018 00:00:00 18,0 12,9 9 5 16 9 SE 1019,9 - 0,0
11.08.2018 23:00:00 18,0 12,7 7 4 13 7 SE 1020,6 15 0,0
11.08.2018 22:00:00 17,9 12,6 6 3 12 7 S 1021,0 - 0,0
11.08.2018 21:00:00 18,0 12,2 9 5 17 9 S 1021,3 - 0,0
11.08.2018 20:00:00 18,2 11,7 8 4 19 11 SW 1021,5 18 0,0
11.08.2018 19:00:00 18,7 11,5 12 7 24 13 SW 1022,1 - 0,0
11.08.2018 18:00:00 18,6 9,9 14 8 29 15 SW 1022,2 - 0,0
11.08.2018 17:00:00 18,4 9,7 18 10 30 16 SW 1022,8 18 0,0
11.08.2018 16:00:00 18,1 8,1 15 8 26 14 WSW 1023,5 - 0,0
11.08.2018 15:00:00 18,1 8,4 16 8 26 14 WSW 1023,8 - 0,0
11.08.2018 14:00:00 18,2 9,5 15 8 29 16 SW 1024,0 20 0,0
11.08.2018 13:00:00 17,6 10,2 14 8 24 13 WSW 1024,2 - 0,0
11.08.2018 12:00:00 17,0 9,7 9 5 22 12 WSW 1024,1 - 0,0
11.08.2018 11:00:00 16,4 9,3 6 3 12 7 WNW 1024,2 20 0,0
11.08.2018 10:00:00 16,2 9,1 5 3 11 6 WNW 1024,3 - 0,0
11.08.2018 09:00:00 15,6 9,7 3 2 7 4 WSW 1024,1 - 0,0
11.08.2018 08:00:00 15,0 9,1 3 2 18 10 E 1023,6 15 0,0
11.08.2018 07:00:00 14,5 8,2 11 6 23 12 NW 1023,1 - 0,0
11.08.2018 06:00:00 14,9 7,7 13 7 23 12 NW 1022,7 - 0,0
11.08.2018 05:00:00 15,2 7,7 13 7 26 14 WNW 1022,4 8 0,0
11.08.2018 04:00:00 15,4 9,1 15 8 28 15 NW 1022,1 - 0,0
11.08.2018 03:00:00 15,7 10,7 16 8 28 15 WNW 1022,0 - 0,0
11.08.2018 02:00:00 16,0 9,4 18 10 35 19 WNW 1021,8 8 0,0
11.08.2018 01:00:00 15,9 12,6 22 12 54 29 WNW 1021,5 - 0,0
11.08.2018 00:00:00 16,7 14,2 36 19 67 36 W 1020,9 - 0,0
10.08.2018 23:00:00 15,9 11,7 30 16 50 27 WSW 1020,6 8 0,0
10.08.2018 22:00:00 14,1 13,1 21 12 66 36 W 1020,4 - 2,6
10.08.2018 21:00:00 16,8 13,3 42 23 74 40 WSW 1019,7 - 0,0
10.08.2018 20:00:00 16,4 13,1 49 27 76 41 SW 1019,3 8 0,8
10.08.2018 19:00:00 17,0 13,7 43 23 86 46 WSW 1019,8 - 0,4
10.08.2018 18:00:00 17,8 11,6 54 29 89 48 SW 1019,4 - 0,2

tt = temperature
td = dewpoint
ff = wind speed
fx = gusts
dd = wind direction
ppp = reduced air pressure
vv = visibility
rr = precipitation

Next stations